When you browse on this site, cookies collect data to enhance your experience and personalize the content and advertising you see.
Visit our Privacy Policy to learn more. By continuing to use the site, you agree to this use of cookies and data.
  • In Österreich
  • Länderverzeichnis
  • Für 7 Tage
  • Wassertemperatur
  • Wetterkarte
  • News
  • Widgets
  • user-avatar
    Anmelden

    Stündliche Wetter Ricaurte

    Heute, 23 September, Montag

    Zeit Temperatur Niederschläge Wind Luftdruck Luftfeuchtigkeit
    00:00 +26°C° 1.3 mm 1 m/S 738 mmHg 79%
    01:00 +23°C° 0 mm 0 m/S 738 mmHg 84%
    02:00 +23°C° 1.8 mm 0 m/S 738 mmHg 85%
    03:00 +23°C° 1.8 mm 0 m/S 738 mmHg 86%
    04:00 +23°C° 1.8 mm 0 m/S 738 mmHg 87%
    05:00 +23°C° 1 mm 0 m/S 738 mmHg 86%
    06:00 +23°C° 1 mm 0 m/S 739 mmHg 86%
    07:00 +23°C° 1 mm 0 m/S 739 mmHg 85%
    08:00 +25°C° 0.3 mm 0 m/S 739 mmHg 80%
    09:00 +29°C° 0.3 mm 1 m/S 739 mmHg 74%
    10:00 +30°C° 0.3 mm 1 m/S 739 mmHg 69%
    11:00 +31°C° 0.1 mm 1 m/S 738 mmHg 63%
    12:00 +33°C° 0.1 mm 1 m/S 737 mmHg 58%
    13:00 +35°C° 0.1 mm 2 m/S 736 mmHg 52%
    14:00 +35°C° 0.1 mm 2 m/S 735 mmHg 51%
    15:00 +34°C° 0.1 mm 1 m/S 735 mmHg 50%
    16:00 +34°C° 0.1 mm 1 m/S 734 mmHg 49%
    17:00 +33°C° 0.1 mm 1 m/S 735 mmHg 53%
    18:00 +31°C° 0.1 mm 1 m/S 736 mmHg 58%
    19:00 +30°C° 0.1 mm 1 m/S 736 mmHg 63%
    20:00 +29°C° 0.1 mm 1 m/S 737 mmHg 63%
    21:00 +28°C° 0.1 mm 1 m/S 737 mmHg 64%
    22:00 +28°C° 0.1 mm 1 m/S 738 mmHg 65%
    23:00 +27°C° 0.5 mm 1 m/S 738 mmHg 69%

    Morgen, 24 September, Dienstag

    Zeit Temperatur Niederschläge Wind Luftdruck Luftfeuchtigkeit
    00:00 +26°C° 0.5 mm 1 m/S 737 mmHg 73%
    01:00 +25°C° 0.5 mm 1 m/S 737 mmHg 77%
    02:00 +25°C° 0.2 mm 1 m/S 737 mmHg 78%
    03:00 +23°C° 0.2 mm 0 m/S 737 mmHg 79%
    04:00 +23°C° 0.2 mm 0 m/S 737 mmHg 80%
    05:00 +23°C° 0.2 mm 0 m/S 737 mmHg 80%
    06:00 +24°C° 0.2 mm 0 m/S 738 mmHg 80%
    07:00 +24°C° 0.2 mm 0 m/S 738 mmHg 80%
    08:00 +26°C° 0.1 mm 0 m/S 739 mmHg 75%
    09:00 +29°C° 0.1 mm 1 m/S 739 mmHg 70%
    10:00 +30°C° 0.1 mm 1 m/S 739 mmHg 65%
    11:00 +31°C° 0.2 mm 1 m/S 738 mmHg 63%
    12:00 +31°C° 0.2 mm 2 m/S 737 mmHg 61%
    13:00 +31°C° 0.2 mm 3 m/S 736 mmHg 59%
    14:00 +32°C° 0 mm 2 m/S 736 mmHg 55%
    15:00 +34°C° 0 mm 2 m/S 735 mmHg 52%
    16:00 +34°C° 0 mm 2 m/S 735 mmHg 49%
    17:00 +32°C° 0.1 mm 2 m/S 735 mmHg 54%
    18:00 +30°C° 0.1 mm 1 m/S 736 mmHg 59%
    19:00 +29°C° 0.1 mm 1 m/S 736 mmHg 65%
    20:00 +28°C° 0.2 mm 1 m/S 737 mmHg 66%
    21:00 +28°C° 0.2 mm 1 m/S 738 mmHg 68%
    22:00 +28°C° 0.2 mm 1 m/S 738 mmHg 69%
    23:00 +27°C° 0.2 mm 1 m/S 738 mmHg 69%

    übermorgen, 25 September, Mittwoch

    Zeit Temperatur Niederschläge Wind Luftdruck Luftfeuchtigkeit
    00:00 +27°C° 0.2 mm 1 m/S 738 mmHg 70%
    01:00 +27°C° 0.2 mm 1 m/S 737 mmHg 70%
    02:00 +27°C° 0.3 mm 1 m/S 737 mmHg 71%
    03:00 +27°C° 0.3 mm 1 m/S 737 mmHg 73%
    04:00 +24°C° 0.3 mm 0 m/S 737 mmHg 74%
    05:00 +25°C° 0.3 mm 0 m/S 738 mmHg 75%
    06:00 +25°C° 0.3 mm 0 m/S 738 mmHg 76%
    07:00 +25°C° 0.3 mm 0 m/S 738 mmHg 77%
    08:00 +26°C° 0.1 mm 0 m/S 739 mmHg 72%
    09:00 +30°C° 0.1 mm 1 m/S 739 mmHg 67%
    10:00 +31°C° 0.1 mm 1 m/S 739 mmHg 62%
    11:00 +33°C° 0.2 mm 1 m/S 738 mmHg 57%
    12:00 +34°C° 0.2 mm 1 m/S 737 mmHg 52%
    13:00 +36°C° 0.2 mm 2 m/S 736 mmHg 48%
    14:00 +36°C° 0.2 mm 2 m/S 735 mmHg 48%
    15:00 +36°C° 0.2 mm 2 m/S 735 mmHg 47%
    16:00 +36°C° 0.2 mm 2 m/S 734 mmHg 47%
    17:00 +34°C° 0.4 mm 2 m/S 735 mmHg 53%
    18:00 +32°C° 0.4 mm 2 m/S 735 mmHg 59%
    19:00 +30°C° 0.4 mm 3 m/S 736 mmHg 64%
    20:00 +29°C° 0.4 mm 2 m/S 737 mmHg 68%
    21:00 +28°C° 0.4 mm 2 m/S 737 mmHg 72%
    22:00 +27°C° 0.4 mm 1 m/S 738 mmHg 76%
    23:00 +27°C° 0.6 mm 1 m/S 738 mmHg 79%

    26 September, Donnerstag

    Zeit Temperatur Niederschläge Wind Luftdruck Luftfeuchtigkeit
    00:00 +26°C° 0.6 mm 1 m/S 737 mmHg 81%
    01:00 +24°C° 0.6 mm 0 m/S 737 mmHg 83%
    02:00 +24°C° 0.3 mm 0 m/S 737 mmHg 84%
    03:00 +23°C° 0.3 mm 0 m/S 737 mmHg 86%
    04:00 +23°C° 0.3 mm 0 m/S 737 mmHg 87%
    05:00 +23°C° 0.1 mm 0 m/S 737 mmHg 86%
    06:00 +24°C° 0.1 mm 0 m/S 738 mmHg 84%
    07:00 +24°C° 0.1 mm 0 m/S 738 mmHg 83%
    08:00 +26°C° 0.1 mm 0 m/S 738 mmHg 77%
    09:00 +29°C° 0.1 mm 1 m/S 738 mmHg 71%
    10:00 +31°C° 0.1 mm 1 m/S 738 mmHg 65%
    11:00 +32°C° 0.1 mm 1 m/S 737 mmHg 59%
    12:00 +35°C° 0.1 mm 2 m/S 737 mmHg 54%
    13:00 +36°C° 0.1 mm 2 m/S 736 mmHg 49%
    14:00 +36°C° 0.2 mm 2 m/S 735 mmHg 48%
    15:00 +36°C° 0.2 mm 2 m/S 735 mmHg 47%
    16:00 +36°C° 0.2 mm 2 m/S 734 mmHg 46%
    17:00 +35°C° 0.3 mm 2 m/S 735 mmHg 50%
    18:00 +32°C° 0.3 mm 1 m/S 735 mmHg 55%
    19:00 +31°C° 0.3 mm 1 m/S 736 mmHg 59%
    20:00 +30°C° 0.4 mm 1 m/S 736 mmHg 63%
    21:00 +29°C° 0.4 mm 1 m/S 737 mmHg 66%
    22:00 +28°C° 0.4 mm 2 m/S 737 mmHg 70%
    23:00 +27°C° 0.7 mm 1 m/S 737 mmHg 74%

    27 September, Freitag

    Zeit Temperatur Niederschläge Wind Luftdruck Luftfeuchtigkeit
    00:00 +26°C° 0.7 mm 1 m/S 737 mmHg 77%
    01:00 +26°C° 0.7 mm 1 m/S 737 mmHg 81%
    02:00 +25°C° 0.4 mm 1 m/S 737 mmHg 82%
    03:00 +25°C° 0.4 mm 1 m/S 736 mmHg 84%
    04:00 +23°C° 0.4 mm 0 m/S 736 mmHg 85%
    05:00 +23°C° 0.3 mm 0 m/S 737 mmHg 84%
    06:00 +24°C° 0.3 mm 0 m/S 737 mmHg 83%
    07:00 +24°C° 0.3 mm 0 m/S 738 mmHg 81%
    08:00 +26°C° 0.1 mm 0 m/S 738 mmHg 75%
    09:00 +30°C° 0.1 mm 1 m/S 738 mmHg 69%
    10:00 +32°C° 0.1 mm 1 m/S 738 mmHg 62%
    11:00 +33°C° 0.2 mm 1 m/S 737 mmHg 58%
    12:00 +34°C° 0.2 mm 1 m/S 736 mmHg 53%
    13:00 +35°C° 0.2 mm 1 m/S 735 mmHg 48%
    14:00 +35°C° 0.1 mm 1 m/S 735 mmHg 49%
    15:00 +34°C° 0.1 mm 1 m/S 735 mmHg 50%
    16:00 +35°C° 0.1 mm 2 m/S 734 mmHg 51%
    17:00 +34°C° 0.1 mm 2 m/S 735 mmHg 54%
    18:00 +31°C° 0.1 mm 2 m/S 735 mmHg 58%
    19:00 +30°C° 0.1 mm 2 m/S 736 mmHg 61%
    20:00 +29°C° 0 mm 2 m/S 736 mmHg 63%
    21:00 +28°C° 0 mm 2 m/S 737 mmHg 66%
    22:00 +28°C° 0 mm 1 m/S 737 mmHg 68%
    23:00 +27°C° 0.5 mm 1 m/S 737 mmHg 72%

    28 September, Samstag

    Zeit Temperatur Niederschläge Wind Luftdruck Luftfeuchtigkeit
    00:00 +26°C° 0.5 mm 1 m/S 737 mmHg 76%
    01:00 +26°C° 0.5 mm 1 m/S 737 mmHg 80%
    02:00 +25°C° 0.5 mm 1 m/S 736 mmHg 82%
    03:00 +23°C° 0.5 mm 0 m/S 736 mmHg 84%
    04:00 +22°C° 0.5 mm 0 m/S 736 mmHg 86%
    05:00 +23°C° 0.1 mm 0 m/S 736 mmHg 85%
    06:00 +24°C° 0.1 mm 0 m/S 737 mmHg 83%
    07:00 +24°C° 0.1 mm 0 m/S 738 mmHg 81%
    08:00 +26°C° 0 mm 0 m/S 738 mmHg 74%
    09:00 +30°C° 0 mm 1 m/S 738 mmHg 68%
    10:00 +32°C° 0 mm 1 m/S 737 mmHg 61%
    11:00 +33°C° 0.1 mm 1 m/S 737 mmHg 56%
    12:00 +34°C° 0.1 mm 1 m/S 736 mmHg 52%
    13:00 +35°C° 0.1 mm 1 m/S 735 mmHg 48%
    14:00 +35°C° 0.1 mm 1 m/S 734 mmHg 47%
    15:00 +35°C° 0.1 mm 1 m/S 734 mmHg 46%
    16:00 +35°C° 0.1 mm 1 m/S 733 mmHg 46%
    17:00 +33°C° 0.3 mm 1 m/S 734 mmHg 52%
    18:00 +32°C° 0.3 mm 1 m/S 735 mmHg 58%
    19:00 +30°C° 0.3 mm 1 m/S 735 mmHg 65%
    20:00 +29°C° 0.5 mm 1 m/S 735 mmHg 68%
    21:00 +28°C° 0.5 mm 1 m/S 736 mmHg 71%
    22:00 +28°C° 0.5 mm 1 m/S 736 mmHg 73%
    23:00 +27°C° 0.5 mm 1 m/S 736 mmHg 76%
    Mehr zeigen